World > North America > United States > Florida > Amelia Island   City of Fernandina Beach, FL

Hourly Amelia Island, FL Regional Weather

Feedback E-mail the Weather

Quick WX

Amelia Island, FL Weather Maps

°F °C°F °C
Amelia Island Weather Map
UTC Time: 10/6/2022, 11:41
Your Time:

Amelia Island, FL Regional Weather

Expires:202210061200;;026810
ASUS42 KTBW 061111
RWRFL 
FLORIDA REGIONAL WEATHER ROUNDUP
NATIONAL WEATHER SERVICE TAMPA BAY RUSKIN FL
700 AM EDT THU OCT 06 2022

NOTE: "FAIR" INDICATES FEW OR NO CLOUDS BELOW 12,000 FEET WITH NO
SIGNIFICANT WEATHER AND/OR OBSTRUCTIONS TO VISIBILITY.


FLZ011-016>038-118-127-128-134-139-239-061200-
NORTH FLORIDA
  
CITY           SKY/WX    TMP DP  RH WIND       PRES   REMARKS
MARIANNA       CLEAR     51  48  89 CALM      30.08R                  
TALLAHASSEE    CLEAR     52  49  89 E6        30.07R                  
LIVE OAK         N/A     50  50 100 CALM      30.07R FOG              
CROSS CITY     CLEAR     51  50  96 CALM      30.08S                  
LAKE CITY      FAIR      52  52 100 CALM      30.07S                  
GAINESVILLE    CLEAR     55  53  93 CALM      30.10R                  
WILLISTON      FAIR      52  51  97 MISG        N/A                   
PALATKA        FAIR      50  48  93 CALM      30.08R                  
MAYPORT NAS    CLEAR     69  60  73 W6        30.06R                  
JACKSONVILLE   PTCLDY    56  54  93 W3        30.06R                  
JAX CECIL      CLEAR     50  50 100 CALM      30.07S                  
FERNANDINA BEA FAIR      61  55  82 W9        30.06S                  
ST AUGUSTINE   CLEAR    N/A N/A N/A W8          N/A                   
PALM COAST     FAIR      57  56  97 CALM      30.07R                  

STATION/POSITION SKY/WX   TEMP    WIND        PRES    WAVE   SWELL
                          AIR SEA DIR/SP/G            HT/PER HT/PER
                          (F)     (DEG/KT/KT) (MB)    (FT/S) (FT/S)
SHELL POINT      NOT AVBL
KEATON BEACH               60      50/  4/  4 1018.3R
CEDAR KEY                  65      40/  3/  4 1018.5R
FERNANDINA                 65 72  260/  2/  3 1018.1R
30.7N   81.3W              67 72                N/A     2/12   2/12
MAYPORT                    67 74  260/  4/  6 1018.4R
31.4N   80.9W              72 74  250/ 10/ 12 1017.2R   2/12   2/12
ST AUGUSTINE               64 75  270/  7/  8 1018.5R

$$

SKY/WX - Weather  TMP - Temperature  DP - Dew Point  RH - Humidity
WIND - Wind Direction/Speed PRES - Barometric Pressure VSB - Visibility
WCI - Wind Chill Index E13G22 Wind - East Wind 13 mph/Gusts of 22 mph

Trending Headlines

Trending Entertainment Headlines

Amelia Island Radar Loop

Use the map search tool if you want to place a location marker on the radar map...

Amelia Island Quick Facts

National Two Day Weather Forecast


E-mail the Amelia Island Weather Forecast

Voice your opinion or tell us about page issues...